www.cux-wetter.de
Wetterdaten: Freitag, 06.04.2012
Datum Zeit Temp. A. Feuchte A. Luftdruck Regen Wind Richtung Richtung Sonnenschein Solar Taupunkt Windchill Windben
06.04.2012 00:00 4,3 C 70 % 1017,5 hPa 0,0 l/m 0,5 km/h (0 Bft) O-NO 60 0 min 0 W/m -0,7 C 4,3 C 0,5 km/h (0 Bft)
06.04.2012 00:15 4,1 C 69 % 1017,5 hPa 0,0 l/m 0,0 km/h (0 Bft) O-NO 75 0 min 0 W/m -1,1 C 4,1 C 0,0 km/h (0 Bft)
06.04.2012 00:30 3,9 C 69 % 1017,5 hPa 0,0 l/m 0,1 km/h (0 Bft) O-NO 75 0 min 0 W/m -1,3 C 3,9 C 0,1 km/h (0 Bft)
06.04.2012 00:45 3,8 C 68 % 1017,5 hPa 0,0 l/m 0,9 km/h (0 Bft) O-NO 75 0 min 0 W/m -1,6 C 3,8 C 0,9 km/h (0 Bft)
06.04.2012 01:00 3,6 C 68 % 1017,5 hPa 0,0 l/m 0,6 km/h (0 Bft) O-NO 75 0 min 0 W/m -1,7 C 3,6 C 0,6 km/h (0 Bft)
06.04.2012 01:14 3,6 C 67 % 1016,5 hPa 0,0 l/m 0,0 km/h (0 Bft) O-NO 75 0 min 0 W/m -1,9 C 3,6 C 0,0 km/h (0 Bft)
06.04.2012 01:30 3,5 C 67 % 1016,5 hPa 0,0 l/m 0,0 km/h (0 Bft) O-NO 75 0 min 0 W/m -2,0 C 3,5 C 0,0 km/h (0 Bft)
06.04.2012 01:45 3,3 C 67 % 1016,5 hPa 0,0 l/m 0,0 km/h (0 Bft) O-NO 75 0 min 0 W/m -2,2 C 3,3 C 0,0 km/h (0 Bft)
06.04.2012 02:00 3,3 C 68 % 1016,5 hPa 0,0 l/m 0,0 km/h (0 Bft) O-NO 75 0 min 0 W/m -2,0 C 3,3 C 0,0 km/h (0 Bft)
06.04.2012 02:15 3,1 C 68 % 1016,5 hPa 0,0 l/m 0,0 km/h (0 Bft) O-NO 75 0 min 0 W/m -2,2 C 3,1 C 0,0 km/h (0 Bft)
06.04.2012 02:30 2,9 C 68 % 1016,5 hPa 0,0 l/m 0,0 km/h (0 Bft) O-NO 75 0 min 0 W/m -2,4 C 2,9 C 0,0 km/h (0 Bft)
06.04.2012 02:44 2,7 C 69 % 1016,5 hPa 0,0 l/m 0,0 km/h (0 Bft) O-NO 75 0 min 0 W/m -2,4 C 2,7 C 0,0 km/h (0 Bft)
06.04.2012 02:59 2,5 C 69 % 1016,5 hPa 0,0 l/m 0,0 km/h (0 Bft) O-NO 75 0 min 0 W/m -2,6 C 2,5 C 0,0 km/h (0 Bft)
06.04.2012 03:15 2,4 C 70 % 1016,5 hPa 0,0 l/m 0,0 km/h (0 Bft) O-NO 75 0 min 0 W/m -2,5 C 2,4 C 0,0 km/h (0 Bft)
06.04.2012 03:30 2,3 C 70 % 1015,5 hPa 0,0 l/m 0,0 km/h (0 Bft) O-NO 75 0 min 0 W/m -2,6 C 2,3 C 0,0 km/h (0 Bft)
06.04.2012 03:45 2,0 C 70 % 1015,5 hPa 0,0 l/m 0,0 km/h (0 Bft) O-NO 75 0 min 0 W/m -2,9 C 2,0 C 0,0 km/h (0 Bft)
06.04.2012 04:00 1,9 C 71 % 1015,5 hPa 0,0 l/m 0,0 km/h (0 Bft) O-NO 75 0 min 0 W/m -2,8 C 1,9 C 0,0 km/h (0 Bft)
06.04.2012 04:15 1,8 C 71 % 1015,5 hPa 0,0 l/m 0,0 km/h (0 Bft) O-NO 75 0 min 0 W/m -2,9 C 1,8 C 0,0 km/h (0 Bft)
06.04.2012 04:30 1,7 C 71 % 1015,5 hPa 0,0 l/m 0,0 km/h (0 Bft) O-NO 75 0 min 0 W/m -3,0 C 1,7 C 0,0 km/h (0 Bft)
06.04.2012 04:45 1,6 C 72 % 1014,5 hPa 0,0 l/m 0,0 km/h (0 Bft) O-NO 75 0 min 0 W/m -2,9 C 1,6 C 0,0 km/h (0 Bft)
06.04.2012 05:00 1,5 C 72 % 1014,5 hPa 0,0 l/m 0,0 km/h (0 Bft) O-NO 75 0 min 0 W/m -3,0 C 1,5 C 0,0 km/h (0 Bft)
06.04.2012 05:14 1,3 C 71 % 1014,5 hPa 0,0 l/m 0,0 km/h (0 Bft) O-NO 75 0 min 0 W/m -3,4 C 1,3 C 0,0 km/h (0 Bft)
06.04.2012 05:30 1,2 C 72 % 1014,5 hPa 0,0 l/m 0,0 km/h (0 Bft) O-NO 75 0 min 0 W/m -3,3 C 1,2 C 0,0 km/h (0 Bft)
06.04.2012 05:45 1,1 C 72 % 1013,5 hPa 0,0 l/m 0,0 km/h (0 Bft) O-NO 75 0 min 0 W/m -3,4 C 1,1 C 0,0 km/h (0 Bft)
06.04.2012 06:00 1,0 C 73 % 1013,5 hPa 0,0 l/m 0,0 km/h (0 Bft) O-NO 75 0 min 0 W/m -3,3 C 1,0 C 0,0 km/h (0 Bft)
06.04.2012 06:15 1,0 C 73 % 1013,5 hPa 0,0 l/m 0,0 km/h (0 Bft) O-NO 75 0 min 0 W/m -3,3 C 1,0 C 0,0 km/h (0 Bft)
06.04.2012 06:30 1,0 C 73 % 1013,5 hPa 0,0 l/m 0,0 km/h (0 Bft) O-NO 75 0 min 0 W/m -3,3 C 1,0 C 0,0 km/h (0 Bft)
06.04.2012 06:44 0,9 C 73 % 1013,5 hPa 0,0 l/m 0,0 km/h (0 Bft) O-NO 75 0 min 0 W/m -3,4 C 0,9 C 0,0 km/h (0 Bft)
06.04.2012 06:59 0,9 C 73 % 1012,5 hPa 0,0 l/m 0,0 km/h (0 Bft) O-NO 75 0 min 0 W/m -3,4 C 0,9 C 0,0 km/h (0 Bft)
06.04.2012 07:15 0,8 C 73 % 1012,5 hPa 0,0 l/m 0,0 km/h (0 Bft) O-NO 75 0 min 0 W/m -3,5 C 0,8 C 0,0 km/h (0 Bft)
06.04.2012 07:30 0,9 C 74 % 1012,5 hPa 0,0 l/m 0,0 km/h (0 Bft) O-NO 75 0 min 0 W/m -3,2 C 0,9 C 0,0 km/h (0 Bft)
06.04.2012 07:45 1,1 C 74 % 1012,5 hPa 0,0 l/m 0,0 km/h (0 Bft) O-NO 75 0 min 0 W/m -3,0 C 1,1 C 0,0 km/h (0 Bft)
06.04.2012 07:59 1,2 C 75 % 1012,5 hPa 0,0 l/m 0,0 km/h (0 Bft) O-NO 75 0 min 0 W/m -2,7 C 1,2 C 0,0 km/h (0 Bft)
06.04.2012 08:15 1,5 C 75 % 1012,5 hPa 0,0 l/m 0,0 km/h (0 Bft) O-NO 75 0 min 0 W/m -2,4 C 1,5 C 0,0 km/h (0 Bft)
06.04.2012 08:30 1,6 C 76 % 1012,5 hPa 0,0 l/m 4,5 km/h (1 Bft) O-NO 75 0 min 0 W/m -2,2 C 1,6 C 4,5 km/h (1 Bft)
06.04.2012 08:45 2,2 C 77 % 1012,5 hPa 0,0 l/m 6,3 km/h (2 Bft) O-NO 75 0 min 0 W/m -1,4 C 2,2 C 6,3 km/h (2 Bft)
06.04.2012 09:00 3,0 C 79 % 1012,5 hPa 0,0 l/m 9,8 km/h (2 Bft) N 360 0 min 0 W/m -0,3 C 0,0 C 9,8 km/h (2 Bft)
06.04.2012 09:15 3,7 C 79 % 1012,5 hPa 0,0 l/m 14,3 km/h (3 Bft) W 280 0 min 0 W/m 0,4 C -2,1 C 14,3 km/h (3 Bft)
06.04.2012 09:30 4,2 C 73 % 1012,5 hPa 0,0 l/m 20,3 km/h (4 Bft) W 280 0 min 0 W/m -0,2 C -4,3 C 20,3 km/h (4 Bft)
06.04.2012 09:45 4,8 C 72 % 1012,5 hPa 0,0 l/m 18,4 km/h (3 Bft) W-NW 285 0 min 0 W/m 0,2 C -2,8 C 18,4 km/h (3 Bft)
06.04.2012 10:00 5,3 C 73 % 1011,5 hPa 0,0 l/m 20,3 km/h (4 Bft) W-NW 295 0 min 0 W/m 0,9 C -2,9 C 20,3 km/h (4 Bft)
06.04.2012 10:14 5,7 C 72 % 1011,5 hPa 0,0 l/m 23,2 km/h (4 Bft) W-NW 295 0 min 0 W/m 1,1 C -3,4 C 23,2 km/h (4 Bft)
06.04.2012 10:29 6,4 C 71 % 1011,5 hPa 0,0 l/m 25,9 km/h (4 Bft) W-NW 300 0 min 0 W/m 1,5 C -3,3 C 25,9 km/h (4 Bft)
06.04.2012 10:45 7,2 C 68 % 1011,5 hPa 0,0 l/m 26,5 km/h (4 Bft) NW 305 0 min 0 W/m 1,7 C -2,4 C 26,5 km/h (4 Bft)
06.04.2012 11:00 7,6 C 67 % 1011,5 hPa 0,0 l/m 25,5 km/h (4 Bft) W 270 0 min 0 W/m 1,9 C -1,6 C 25,5 km/h (4 Bft)
06.04.2012 11:15 8,1 C 68 % 1011,5 hPa 0,0 l/m 26,1 km/h (4 Bft) W 265 0 min 0 W/m 2,6 C -1,0 C 26,1 km/h (4 Bft)
06.04.2012 11:30 7,7 C 66 % 1011,5 hPa 0,0 l/m 28,0 km/h (5 Bft) W 275 0 min 0 W/m 1,8 C -2,1 C 28,0 km/h (5 Bft)
06.04.2012 11:45 7,6 C 68 % 1011,5 hPa 0,0 l/m 29,0 km/h (5 Bft) W 260 0 min 0 W/m 2,1 C -2,5 C 29,0 km/h (5 Bft)
06.04.2012 11:59 7,7 C 68 % 1010,5 hPa 0,0 l/m 28,7 km/h (5 Bft) W-NW 285 0 min 0 W/m 2,2 C -2,3 C 28,7 km/h (5 Bft)
06.04.2012 12:15 8,0 C 67 % 1010,5 hPa 0,0 l/m 30,1 km/h (5 Bft) W 275 0 min 0 W/m 2,3 C -2,2 C 30,1 km/h (5 Bft)
06.04.2012 12:30 7,9 C 67 % 1010,5 hPa 0,0 l/m 31,0 km/h (5 Bft) W 275 0 min 0 W/m 2,2 C -2,5 C 31,0 km/h (5 Bft)
06.04.2012 12:45 7,8 C 65 % 1010,5 hPa 0,0 l/m 31,7 km/h (5 Bft) NW 310 0 min 0 W/m 1,6 C -2,8 C 31,7 km/h (5 Bft)
06.04.2012 13:00 7,9 C 63 % 1009,5 hPa 0,0 l/m 32,3 km/h (5 Bft) NW 315 0 min 0 W/m 1,3 C -2,8 C 32,3 km/h (5 Bft)
06.04.2012 13:15 8,0 C 61 % 1009,5 hPa 0,0 l/m 30,7 km/h (5 Bft) NW 305 0 min 0 W/m 0,9 C -2,3 C 30,7 km/h (5 Bft)
06.04.2012 13:30 8,4 C 58 % 1009,5 hPa 0,0 l/m 27,1 km/h (5 Bft) W-NW 285 0 min 0 W/m 0,6 C -0,9 C 27,1 km/h (5 Bft)
06.04.2012 13:45 8,7 C 56 % 1009,5 hPa 0,0 l/m 30,5 km/h (5 Bft) NW 320 0 min 0 W/m 0,4 C -1,3 C 30,5 km/h (5 Bft)
06.04.2012 14:00 8,2 C 55 % 1009,5 hPa 0,0 l/m 29,3 km/h (5 Bft) NW 305 0 min 0 W/m -0,3 C -1,7 C 29,3 km/h (5 Bft)
06.04.2012 14:14 8,1 C 53 % 1008,5 hPa 0,0 l/m 30,7 km/h (5 Bft) W-NW 295 0 min 0 W/m -0,9 C -2,2 C 30,7 km/h (5 Bft)
06.04.2012 14:29 7,9 C 52 % 1008,5 hPa 0,0 l/m 32,3 km/h (5 Bft) NW 310 0 min 0 W/m -1,3 C -2,8 C 32,3 km/h (5 Bft)
06.04.2012 14:45 7,9 C 56 % 1008,5 hPa 0,0 l/m 32,6 km/h (5 Bft) W-NW 300 0 min 0 W/m -0,3 C -2,9 C 32,6 km/h (5 Bft)
06.04.2012 15:00 7,5 C 63 % 1008,5 hPa 0,0 l/m 29,8 km/h (5 Bft) W 275 0 min 0 W/m 0,9 C -2,8 C 29,8 km/h (5 Bft)
06.04.2012 15:15 7,2 C 63 % 1007,5 hPa 0,0 l/m 32,2 km/h (5 Bft) W-NW 285 0 min 0 W/m 0,6 C -3,8 C 32,2 km/h (5 Bft)
06.04.2012 15:30 6,8 C 69 % 1007,5 hPa 0,0 l/m 34,4 km/h (5 Bft) W 280 0 min 0 W/m 1,5 C -4,8 C 34,4 km/h (5 Bft)
06.04.2012 15:45 6,3 C 72 % 1007,5 hPa 0,0 l/m 34,9 km/h (5 Bft) W 265 0 min 0 W/m 1,6 C -5,6 C 34,9 km/h (5 Bft)
06.04.2012 15:59 6,0 C 77 % 1007,5 hPa 0,0 l/m 31,9 km/h (5 Bft) W 275 0 min 0 W/m 2,3 C -5,4 C 31,9 km/h (5 Bft)
06.04.2012 16:15 5,9 C 79 % 1007,5 hPa 0,0 l/m 32,8 km/h (5 Bft) W 275 0 min 0 W/m 2,5 C -5,8 C 32,8 km/h (5 Bft)
06.04.2012 16:30 5,8 C 79 % 1006,5 hPa 0,0 l/m 33,0 km/h (5 Bft) W 265 0 min 0 W/m 2,4 C -6,0 C 33,0 km/h (5 Bft)
06.04.2012 16:45 5,8 C 81 % 1006,5 hPa 0,3 l/m 27,8 km/h (5 Bft) W 265 0 min 0 W/m 2,8 C -4,7 C 27,8 km/h (5 Bft)
06.04.2012 17:00 5,6 C 83 % 1006,5 hPa 0,0 l/m 29,7 km/h (5 Bft) W 275 0 min 0 W/m 2,9 C -5,5 C 29,7 km/h (5 Bft)
06.04.2012 17:15 5,6 C 85 % 1006,5 hPa 0,0 l/m 32,2 km/h (5 Bft) W 270 0 min 0 W/m 3,3 C -6,1 C 32,2 km/h (5 Bft)
06.04.2012 17:30 5,6 C 85 % 1005,5 hPa 0,3 l/m 35,3 km/h (5 Bft) W 270 0 min 0 W/m 3,3 C -6,7 C 35,3 km/h (5 Bft)
06.04.2012 17:45 5,6 C 86 % 1005,5 hPa 0,0 l/m 28,4 km/h (5 Bft) W 280 0 min 0 W/m 3,4 C -5,1 C 28,4 km/h (5 Bft)
06.04.2012 18:00 5,5 C 87 % 1005,5 hPa 0,3 l/m 37,1 km/h (5 Bft) W 270 0 min 0 W/m 3,5 C -7,2 C 37,1 km/h (5 Bft)
06.04.2012 18:14 5,6 C 88 % 1005,5 hPa 0,0 l/m 28,4 km/h (5 Bft) W 265 0 min 0 W/m 3,8 C -5,1 C 28,4 km/h (5 Bft)
06.04.2012 18:29 5,6 C 88 % 1004,5 hPa 0,3 l/m 35,3 km/h (5 Bft) W 270 0 min 0 W/m 3,8 C -6,7 C 35,3 km/h (5 Bft)
06.04.2012 18:45 5,6 C 89 % 1004,5 hPa 0,0 l/m 31,6 km/h (5 Bft) W 270 0 min 0 W/m 3,9 C -5,9 C 31,6 km/h (5 Bft)
06.04.2012 19:00 5,6 C 89 % 1004,5 hPa 0,3 l/m 34,1 km/h (5 Bft) W 265 0 min 0 W/m 3,9 C -6,5 C 34,1 km/h (5 Bft)
06.04.2012 19:15 5,6 C 89 % 1004,5 hPa 0,0 l/m 34,0 km/h (5 Bft) W 265 0 min 0 W/m 3,9 C -6,5 C 34,0 km/h (5 Bft)
06.04.2012 19:30 5,7 C 89 % 1003,5 hPa 0,0 l/m 32,9 km/h (5 Bft) W 260 0 min 0 W/m 4,0 C -6,1 C 32,9 km/h (5 Bft)
06.04.2012 19:45 5,8 C 90 % 1003,5 hPa 0,3 l/m 29,2 km/h (5 Bft) W 265 0 min 0 W/m 4,3 C -5,0 C 29,2 km/h (5 Bft)
06.04.2012 19:59 5,8 C 90 % 1003,5 hPa 0,3 l/m 28,3 km/h (5 Bft) W-SW 255 0 min 0 W/m 4,3 C -4,8 C 28,3 km/h (5 Bft)
06.04.2012 20:15 5,8 C 90 % 1003,5 hPa 0,0 l/m 30,6 km/h (5 Bft) W 270 0 min 0 W/m 4,3 C -5,4 C 30,6 km/h (5 Bft)
06.04.2012 20:30 5,8 C 91 % 1002,5 hPa 0,6 l/m 32,0 km/h (5 Bft) W 265 0 min 0 W/m 4,4 C -5,7 C 32,0 km/h (5 Bft)
06.04.2012 20:45 5,9 C 91 % 1002,5 hPa 0,3 l/m 33,0 km/h (5 Bft) W 265 0 min 0 W/m 4,5 C -5,8 C 33,0 km/h (5 Bft)
06.04.2012 21:00 5,9 C 92 % 1002,5 hPa 0,3 l/m 31,8 km/h (5 Bft) W 260 0 min 0 W/m 4,7 C -5,5 C 31,8 km/h (5 Bft)
06.04.2012 21:15 6,0 C 92 % 1002,5 hPa 0,3 l/m 32,1 km/h (5 Bft) W 270 0 min 0 W/m 4,8 C -5,5 C 32,1 km/h (5 Bft)
06.04.2012 21:30 6,0 C 92 % 1002,5 hPa 0,3 l/m 34,0 km/h (5 Bft) W-NW 290 0 min 0 W/m 4,8 C -5,9 C 34,0 km/h (5 Bft)
06.04.2012 21:45 6,0 C 92 % 1001,5 hPa 0,0 l/m 25,3 km/h (4 Bft) W-NW 300 0 min 0 W/m 4,8 C -3,7 C 25,3 km/h (4 Bft)
06.04.2012 22:00 5,8 C 91 % 1001,5 hPa 0,3 l/m 34,7 km/h (5 Bft) NW 310 0 min 0 W/m 4,4 C -6,3 C 34,7 km/h (5 Bft)
06.04.2012 22:14 5,6 C 91 % 1001,5 hPa 0,0 l/m 33,1 km/h (5 Bft) NW 310 0 min 0 W/m 4,2 C -6,3 C 33,1 km/h (5 Bft)
06.04.2012 22:29 5,5 C 90 % 1001,5 hPa 0,3 l/m 27,1 km/h (5 Bft) NW 320 0 min 0 W/m 4,0 C -4,9 C 27,1 km/h (5 Bft)
06.04.2012 22:45 5,4 C 89 % 1001,5 hPa 0,0 l/m 36,8 km/h (5 Bft) N-NW 340 0 min 0 W/m 3,7 C -7,3 C 36,8 km/h (5 Bft)
06.04.2012 23:00 5,6 C 90 % 1001,5 hPa 0,3 l/m 26,1 km/h (4 Bft) NW 325 0 min 0 W/m 4,1 C -4,5 C 26,1 km/h (4 Bft)
06.04.2012 23:15 5,7 C 90 % 1001,5 hPa 0,0 l/m 30,1 km/h (5 Bft) N-NW 330 0 min 0 W/m 4,2 C -5,4 C 30,1 km/h (5 Bft)
06.04.2012 23:30 5,7 C 90 % 1001,5 hPa 0,3 l/m 34,2 km/h (5 Bft) N 5 0 min 0 W/m 4,2 C -6,4 C 34,2 km/h (5 Bft)
06.04.2012 23:45 5,1 C 89 % 1001,5 hPa 0,3 l/m 31,8 km/h (5 Bft) NO 35 0 min 0 W/m 3,4 C -6,7 C 31,8 km/h (5 Bft)
06.04.2012 23:59 4,7 C 89 % 1001,5 hPa 0,0 l/m 36,8 km/h (5 Bft) O-NO 60 0 min 0 W/m 3,0 C -8,4 C 36,8 km/h (5 Bft)
_ Min-Zeit 07:15 14:29 21:45 - 00:15 - - - - 07:15 23:59 00:15
Minimum _ 0,8 C 52 % 1001,5 hPa - 0,0 km/h (0 Bft) - - - - -3,5 C -8,4 C 0,0 km/h (0 Bft)
_ Max-Zeit 13:45 21:00 00:00 20:30 18:00 - - 00:00 00:00 21:15 00:00 18:00
Maximum _ 8,7 C 92 % 1017,5 hPa 0,6 l/m 37,1 km/h
W (5 Bft)
- - 0 min 0 W/m 4,8 C 4,3 C 37,1 km/h
W (5 Bft)
Durchschnitt _ 4,7 C 75 % 1009,7 hPa #5,4 l/m 19,0 km/h (3 Bft) W - #0 min. 0 W/m 0,6 C -2,0 C 19,0 km/h (3 Bft)
copyright by Holger Just